Tracking 30995 objects as of 6-Jul-2025
HD Live streaming from Space Station
objects crossing your sky now

COSMOS 2251 DEB

Track COSMOS 2251 DEB now!
10-day predictions


NORAD ID: 36371
Int'l Code: 1993-036AYY
Perigee: 669.3 km
Apogee: 689.8 km
Inclination: 74.0 °
Period: 98.2 minutes
Semi major axis: 7050 km
RCS: 0.0064 m2 (small)
Launch date: June 16, 1993
Source: Commonwealth of Independent States (former USSR) (CIS)
Launch site: PLESETSK MISSILE AND SPACE COMPLEX (PKMTR)

Note: This is SATELLITE DEBRIS
Your satellite tracking list
Your tracking list is empty




NASA's NSSDC Master Catalog

Two Line Element Set (TLE):
1 36371U 93036AYY 25183.49996099  .00006553  00000-0  11866-2 0  9998
2 36371  74.0148 117.5329 0014529 208.0731 151.9656 14.66447132690495
Source of the keplerian elements: AFSPC